Time (yr/mo/day/hr) Wind Speed at 50 metres (Glencore Tower; km/hr) Wind Direction at 50 metres (Glencore Tower; degrees) Temperature (oC) SO2 Dispersion Conditions Mixing Height (m)
2020 08 07 07 3 249 14 Slightly unstable 156
2020 08 07 08 5 247 17 Moderately unstable 268
2020 08 07 09 6 234 19 Moderately unstable 339
2020 08 07 10 7 227 22 Moderately unstable 456
2020 08 07 11 8 216 23 Moderately unstable 652
2020 08 07 12 8 212 24 Moderately unstable 1207
2020 08 07 13 8 209 25 Moderately unstable 1714
2020 08 07 14 8 208 25 Moderately unstable 1950
2020 08 07 15 9 208 26 Moderately unstable 2037
2020 08 07 16 11 194 25 Moderately unstable 2094
2020 08 07 17 11 199 25 Slightly unstable 2089
2020 08 07 18 13 210 24 Slightly unstable 835
2020 08 07 19 13 222 23 Neutral 1151
2020 08 07 20 11 226 21 Neutral 409
2020 08 07 21 11 231 20 Stable 398
2020 08 07 22 11 234 19 Stable 409
2020 08 07 23 12 239 18 Stable 410
2020 08 08 00 12 250 17 Stable 416
2020 08 08 01 11 261 17 Stable 372
2020 08 08 02 10 267 17 Stable 331
2020 08 08 03 9 265 16 Stable 251
2020 08 08 04 8 267 15 Stable 184
2020 08 08 05 6 252 15 Stable 72
2020 08 08 06 6 223 15 Slightly unstable 66
2020 08 08 07 7 201 15 Neutral 288